RH
10 7 8 12 17 21 22 23 22 25 26 21 14 13 13 11 10 14 17 17 17 16 16 15 14 15 13 10 5 2 3 3 3 3 4 5 5 6 5 3 2 1 2 1 2 3 2 4 5 4 4 5 4 5 5 6 6 8 21 29 23 23 26 25 24 21 21 24 26 25 25 25 29 28 22 29 29 19 15 16 18 17 16 17 17 18 19 20
12 8 8 12 18 21 21 23 25 25 21 14 11 10 11 11 12 17 17 13 10 7 8 8 7 6 5 5 4 3 3 3 3 4 4 5 5 5 4 2 2 2 3 5 8 8 9 10 12 12 9 8 8 7 8 8 8 13 25 27 24 29 27 20 18 19 20 23 25 26 26 20 17 13 12 24 25 15 14 16 17 19 19 22 22 23 23 22
16 12 10 12 17 19 21 23 22 18 12 9 9 8 10 11 13 16 13 9 6 4 3 3 3 3 3 3 3 3 3 3 4 4 3 4 4 3 4 4 5 7 9 12 14 13 13 13 14 15 14 13 13 14 14 13 16 17 21 27 30 31 25 15 12 15 17 19 22 20 18 11 8 8 8 14 14 11 14 15 17 20 20 22 22 21 21 21
16 15 14 15 17 18 19 18 14 9 7 6 7 6 7 8 9 9 7 5 4 4 3 3 4 3 4 3 4 4 3 4 4 3 4 4 5 6 8 10 10 10 10 11 11 10 10 10 12 11 14 16 15 17 18 17 20 20 24 32 28 21 21 14 8 12 13 14 13 10 11 8 5 6 7 11 13 13 15 17 17 17 18 19 20 21 21 21
10 12 14 15 15 15 13 10 7 5 5 4 4 4 4 4 4 4 3 3 3 3 3 3 4 4 4 3 4 3 4 8 6 5 8 8 9 10 10 9 8 7 7 7 7 8 8 8 8 8 12 14 15 18 17 13 14 20 25 23 17 12 14 10 6 10 10 9 8 6 8 6 6 8 10 13 16 17 16 17 18 16 18 19 21 22 22 22
4 6 8 10 9 9 7 5 4 3 3 2 2 2 2 2 2 3 2 3 3 4 4 4 4 4 4 3 4 4 7 12 10 9 10 9 8 8 7 6 6 7 7 6 6 7 7 7 6 7 11 11 13 16 14 9 12 29 30 14 12 11 8 6 6 8 8 7 7 7 7 7 9 11 13 16 17 17 17 17 19 19 21 22 23 24 24 24
2 3 4 4 4 4 3 2 2 1 1 1 2 2 2 2 2 3 3 4 4 4 4 4 4 4 4 4 5 7 10 11 9 9 7 7 7 7 8 8 9 9 6 5 5 5 5 4 5 6 8 9 9 10 11 9 9 23 23 9 9 9 5 6 6 7 8 8 7 8 9 10 11 12 13 15 16 17 19 19 20 23 24 25 26 27 28 28
2 1 1 1 2 2 1 1 1 1 1 1 2 2 2 3 3 4 4 5 4 4 4 4 5 4 5 5 7 9 10 8 7 7 6 7 8 8 9 10 11 9 5 4 3 4 3 2 4 5 5 8 8 7 7 9 8 9 8 6 7 6 6 7 6 7 8 8 9 9 10 12 13 13 14 16 18 20 21 22 22 24 24 25 28 31 32 32
1 1 1 1 1 1 1 2 1 2 2 2 2 2 3 3 4 4 5 5 5 5 5 6 7 7 8 8 8 10 9 7 7 6 6 7 7 8 9 10 11 8 5 5 3 3 3 2 3 3 4 5 6 6 3 10 15 7 3 5 5 6 8 8 8 7 8 9 9 9 10 14 15 15 17 17 18 21 23 24 25 24 24 25 28 32 34 35
1 1 1 1 1 2 2 2 2 3 3 3 3 3 4 4 5 5 5 6 7 9 9 9 9 9 9 9 10 11 9 8 8 6 5 6 6 7 8 10 11 9 6 5 3 3 3 3 3 3 5 4 4 3 2 8 13 6 4 6 6 9 8 9 10 8 9 9 8 9 10 12 14 16 18 16 18 21 23 23 24 25 26 27 28 31 32 34
1 1 2 2 2 3 3 3 3 3 3 3 3 4 5 6 6 6 7 8 10 11 11 10 9 10 10 11 12 10 9 7 6 6 6 6 6 6 7 10 11 8 6 5 4 3 3 3 3 4 4 4 4 4 4 5 7 6 7 7 8 10 9 8 10 10 8 7 8 7 7 11 14 16 17 17 19 19 19 19 19 21 23 25 27 29 31 32
2 3 3 3 3 4 4 3 3 3 4 4 5 6 7 7 7 8 10 10 10 10 10 10 10 11 11 11 10 8 8 7 6 5 5 5 6 6 7 8 9 7 6 5 5 3 3 3 3 4 4 5 5 4 6 6 7 9 8 8 12 15 15 9 6 9 7 5 7 6 12 20 18 20 21 19 18 17 17 18 18 19 19 22 26 29 32 34
4 4 4 4 4 4 4 4 5 6 6 7 7 8 8 9 10 11 11 10 9 9 9 9 9 9 9 8 7 7 7 6 5 4 4 5 5 6 6 7 7 6 6 5 6 4 4 4 4 4 4 6 6 6 8 7 8 9 10 14 16 20 23 13 4 8 9 7 6 5 19 31 25 23 20 14 14 16 18 18 17 19 20 23 27 30 33 35
4 4 4 5 5 5 6 7 8 8 8 9 10 10 11 13 13 12 11 10 9 9 9 8 6 5 5 5 4 5 5 4 5 4 4 6 6 5 5 6 5 5 5 6 6 5 5 4 4 5 5 6 7 7 8 8 8 11 17 18 14 18 21 12 5 6 8 7 5 4 18 31 26 18 12 8 12 17 18 17 17 19 22 25 29 33 34 34
4 5 5 6 6 7 8 9 10 11 12 14 14 15 15 14 12 11 10 10 9 8 7 6 4 4 4 4 4 4 4 4 4 5 5 5 5 5 4 5 5 5 5 5 6 6 6 5 5 6 6 7 6 9 16 17 14 14 19 20 15 13 12 11 9 5 5 5 4 5 15 25 16 6 6 7 13 17 18 18 19 21 23 26 30 34 36 35
5 6 6 7 9 9 10 11 13 15 17 17 16 15 13 12 11 11 11 10 10 9 7 5 3 4 4 4 4 4 4 4 4 5 5 5 5 5 5 5 4 5 5 5 6 5 6 6 8 7 6 6 4 14 24 20 17 15 16 23 20 10 10 16 13 4 4 4 5 6 13 22 12 3 5 7 12 15 15 17 18 20 20 22 26 30 34 34
6 7 8 10 10 11 13 15 17 17 16 15 13 11 10 10 9 9 9 7 6 7 7 6 4 4 4 5 5 4 4 4 4 4 4 5 5 4 5 5 5 5 5 6 6 5 7 7 9 9 6 5 3 9 17 15 15 11 10 21 17 5 10 20 16 7 5 4 6 6 9 17 10 3 6 7 11 12 11 13 15 16 16 18 22 25 31 33
9 9 10 11 11 13 17 18 18 16 14 12 10 10 9 8 8 8 9 8 5 4 5 6 6 6 5 5 5 5 5 5 4 4 5 4 5 5 5 6 6 6 7 7 7 7 8 8 9 8 4 5 4 4 9 12 12 8 8 13 10 7 15 23 20 10 5 4 6 6 11 16 8 4 8 8 9 8 9 11 12 15 16 17 19 22 27 31
11 11 11 12 14 18 18 16 15 13 12 11 10 9 9 8 9 9 9 8 6 5 5 5 5 6 6 6 6 6 5 5 5 5 5 5 6 6 6 7 7 8 9 9 8 9 9 7 6 6 4 5 6 5 6 7 6 6 6 6 10 22 26 22 16 8 5 6 5 7 12 14 9 7 10 9 8 8 8 10 11 14 15 15 17 20 24 28
12 12 12 14 18 20 17 13 11 11 10 8 8 6 6 7 8 8 7 6 6 6 8 8 6 6 7 7 7 7 6 5 6 6 6 6 6 7 7 8 8 9 10 9 9 9 8 7 5 6 6 6 6 6 5 5 6 5 7 10 17 28 25 13 9 7 6 7 6 8 9 8 10 9 9 10 9 9 11 11 13 14 15 16 17 20 23 27
14 14 15 19 21 18 13 11 10 9 8 7 6 5 6 7 6 6 6 5 6 7 8 8 8 8 7 7 7 7 7 6 7 6 6 7 7 8 8 8 10 11 10 9 11 10 5 5 6 6 6 6 6 5 5 5 5 4 10 18 20 21 16 9 12 11 6 8 7 11 13 13 16 12 8 12 10 12 15 15 17 17 18 19 19 22 24 26
15 16 19 21 18 13 10 10 10 8 8 7 6 6 5 6 6 6 5 6 7 7 7 7 7 8 8 8 7 7 7 6 8 7 7 8 8 8 8 9 10 10 10 12 18 18 9 5 7 6 6 6 6 5 5 6 8 11 15 20 19 16 12 9 15 15 11 13 13 17 19 17 25 23 14 16 15 17 20 18 21 21 21 23 24 26 28 29
16 19 21 18 13 10 9 9 8 7 7 6 7 7 6 6 6 6 5 6 7 7 7 7 6 7 7 7 7 7 7 6 7 7 8 9 8 9 9 8 10 11 12 11 15 17 12 8 7 6 6 5 5 5 5 7 16 23 19 16 14 11 11 12 13 14 15 17 19 22 18 16 30 30 19 21 21 20 22 21 23 25 25 27 29 32 35 39
19 21 18 13 9 8 8 7 7 8 8 8 9 9 9 9 8 8 7 6 7 7 7 7 7 6 6 7 7 7 8 8 8 8 9 9 9 8 8 8 10 12 13 9 9 11 10 10 9 6 6 7 10 9 5 7 19 29 23 14 10 7 10 11 9 12 14 17 23 25 21 20 26 26 20 23 24 23 24 25 28 30 30 32 36 41 44 45
21 20 13 9 8 9 10 12 13 13 13 13 11 10 10 9 9 10 7 7 7 7 7 7 7 7 7 7 7 8 10 9 9 10 10 9 8 8 7 8 9 12 13 11 12 14 10 10 10 7 8 12 14 10 7 8 16 29 25 13 8 8 9 7 10 21 19 18 24 25 23 20 22 32 32 25 26 27 27 30 34 35 38 42 46 47 45 44
20 15 10 9 10 12 14 16 16 15 16 15 13 12 12 11 14 13 9 10 10 7 7 7 7 7 7 7 7 9 12 11 10 11 10 10 9 8 7 7 8 10 13 13 15 14 9 10 10 9 9 11 11 9 9 8 13 25 20 9 8 9 10 10 17 28 26 21 22 23 28 25 22 35 37 27 26 28 30 36 40 41 48 52 48 44 41 46
16 11 9 10 12 14 15 15 15 14 15 14 13 13 12 12 14 15 13 13 11 8 8 8 8 7 7 8 8 9 12 12 11 12 11 10 9 8 7 6 7 7 10 17 22 16 10 11 10 9 9 7 8 9 8 7 14 22 15 7 10 10 11 15 19 25 25 26 26 25 34 34 24 27 31 27 28 35 40 44 47 49 51 46 38 38 43 53
12 10 9 9 11 13 13 13 13 14 15 14 14 14 13 10 8 11 13 12 11 9 9 8 8 8 7 8 9 9 12 12 13 13 11 11 9 8 7 6 7 7 7 15 21 15 12 12 10 9 9 7 8 9 9 9 14 17 11 9 11 12 15 15 16 22 27 31 29 22 24 26 20 21 29 34 39 50 53 49 50 47 40 37 38 44 50 54
10 10 9 8 10 10 11 12 12 14 15 14 15 15 15 11 7 9 11 11 11 8 8 8 7 8 7 8 10 11 12 13 13 13 12 11 9 8 8 7 8 9 7 10 13 13 15 14 10 10 9 8 8 8 9 11 13 13 12 13 14 17 21 21 23 29 31 29 25 18 16 19 20 19 25 38 50 60 60 53 47 40 38 46 50 50 52 54
10 9 9 8 10 10 11 12 12 14 15 14 14 15 14 11 9 12 12 10 10 8 8 8 7 8 8 9 11 11 13 13 12 13 12 11 10 9 9 8 8 10 10 10 9 11 14 13 11 10 10 9 8 9 12 12 17 21 20 22 23 21 22 27 30 28 25 22 20 17 16 21 27 23 22 33 44 49 50 45 43 49 59 66 64 61 64 66
9 10 10 10 11 12 12 13 13 13 13 12 12 12 11 9 9 14 14 11 11 9 8 8 7 8 8 10 12 12 13 13 13 13 11 11 11 9 9 8 8 11 13 11 9 11 13 14 14 11 10 10 7 12 17 19 29 35 30 29 28 22 18 22 24 22 22 22 18 17 19 25 30 27 25 30 32 34 39 47 59 74 84 83 78 74 72 65
11 11 11 11 12 12 11 11 11 11 11 10 10 9 9 9 9 12 13 11 12 11 8 8 7 7 9 12 13 14 14 14 14 13 12 13 11 10 11 10 10 13 16 14 12 14 17 17 15 13 14 12 8 15 21 23 33 37 32 32 30 25 24 25 24 23 24 22 19 20 26 31 30 27 32 34 31 35 46 66 83 90 91 85 78 77 67 47
12 11 11 10 10 9 9 8 7 8 8 9 9 7 8 10 11 11 11 10 11 11 9 9 8 7 10 13 15 16 14 15 15 13 14 14 13 13 13 12 13 13 17 20 16 15 21 21 17 17 19 15 9 15 20 21 30 38 37 36 32 31 39 40 33 29 28 25 25 28 32 35 33 31 34 33 31 41 58 78 92 89 84 78 74 73 59 35
9 8 8 7 6 6 6 5 5 5 5 6 6 5 6 8 10 9 8 8 9 10 11 10 8 8 11 15 17 16 15 16 15 14 14 15 16 15 12 13 14 11 16 26 22 15 20 23 19 17 16 14 10 13 17 19 31 41 41 40 34 32 43 44 36 35 38 36 34 36 36 35 32 31 32 33 38 57 74 83 88 82 74 72 68 59 46 39
5 5 5 4 4 5 4 5 5 4 5 5 4 5 5 7 9 9 9 8 8 9 10 12 10 10 14 17 17 16 17 16 15 15 14 14 17 16 13 14 15 13 17 26 25 17 19 20 17 14 13 12 11 13 16 20 27 34 36 40 36 31 39 43 39 39 41 41 39 36 33 29 29 32 36 43 53 70 81 81 80 73 66 69 63 52 51 54
4 4 4 4 4 5 4 5 5 4 5 5 5 6 6 8 9 10 11 10 9 8 11 14 12 12 16 18 17 16 16 17 15 17 16 15 19 20 15 15 17 18 17 23 29 27 24 18 13 14 14 13 14 15 20 25 27 31 35 38 35 36 47 50 43 39 37 39 37 31 31 32 33 37 45 56 65 73 76 75 72 62 60 70 65 56 59 60
4 4 4 4 5 5 5 5 5 5 5 5 6 7 8 9 8 9 10 9 9 9 11 14 13 14 16 17 18 15 16 18 15 17 18 17 22 22 16 15 19 21 18 24 35 34 29 24 18 18 16 15 17 20 28 35 33 37 47 49 43 44 54 52 41 38 41 43 40 33 37 41 38 40 48 55 62 71 73 68 62 55 58 70 67 59 60 62
5 5 5 5 5 5 5 6 5 6 6 6 7 8 9 9 9 9 9 9 10 9 11 13 13 16 18 17 18 14 15 18 14 15 20 19 22 24 19 17 18 21 21 24 30 28 28 32 27 19 16 18 24 26 30 35 35 44 57 63 57 50 51 47 42 48 58 60 53 43 42 45 42 42 50 56 61 70 70 59 54 59 66 69 66 63 64 65
5 5 5 5 6 6 6 7 6 6 7 7 9 9 10 10 10 11 10 10 11 10 12 14 14 17 18 17 18 14 14 18 13 15 19 17 20 23 20 17 17 23 24 23 24 19 26 40 32 17 17 22 27 26 25 29 38 48 54 59 64 60 57 54 51 59 68 69 66 59 52 47 43 49 60 65 66 67 62 52 55 67 74 71 69 67 66 66
5 5 6 6 7 7 7 8 8 8 9 9 10 10 10 11 11 11 11 11 12 11 12 16 16 18 19 17 17 14 15 17 14 15 16 14 17 21 19 16 16 23 24 24 23 14 22 42 36 22 21 23 23 22 23 30 38 45 49 56 65 69 65 60 55 57 63 65 67 69 63 51 49 62 70 67 65 61 53 53 64 73 72 69 67 64 63 66
6 6 7 8 8 8 8 9 9 10 11 11 12 12 11 12 11 12 13 12 13 13 13 17 18 19 19 18 17 15 15 17 16 15 15 13 15 19 18 14 15 24 24 23 23 15 18 32 34 31 29 23 21 21 27 34 35 43 57 62 69 76 72 63 54 48 51 55 59 68 71 64 59 63 64 62 60 53 48 58 71 73 70 68 65 62 64 70
7 7 8 8 9 10 9 10 11 12 12 12 13 13 13 13 12 13 14 13 14 15 15 18 19 19 20 18 17 16 16 17 17 16 15 13 13 15 15 14 18 24 25 23 21 17 19 26 32 36 30 23 23 26 32 36 34 47 64 66 70 77 76 75 69 58 59 63 63 70 75 66 56 54 57 57 51 48 57 71 76 73 69 66 63 62 67 77
8 8 9 9 9 11 10 11 13 14 14 14 15 14 14 14 14 14 15 15 15 16 17 19 20 20 20 19 18 17 16 17 17 16 15 12 12 14 14 16 21 25 26 23 18 17 23 29 30 30 25 22 25 29 32 33 31 42 55 61 67 65 60 65 64 63 78 86 77 77 77 64 54 55 58 52 45 55 72 76 73 71 67 63 66 71 76 83
9 9 10 10 10 10 11 12 14 14 15 16 16 17 16 16 16 15 15 16 16 17 19 20 21 21 21 20 19 18 17 17 16 16 14 12 12 14 14 17 22 27 27 23 19 17 23 29 28 28 30 27 27 28 27 28 30 36 44 52 60 59 47 45 52 63 82 86 75 76 80 69 58 56 54 52 56 69 80 79 73 69 66 70 79 84 87 90
9 10 11 11 12 11 11 12 14 14 15 16 17 18 18 17 17 17 16 17 18 19 20 20 21 22 22 21 21 19 19 18 16 15 13 12 12 12 14 17 23 30 27 21 20 17 21 32 32 30 36 37 33 30 28 33 40 43 45 45 53 63 54 47 64 79 78 77 82 87 82 68 58 53 51 60 73 80 81 79 75 72 72 76 81 83 87 94
9 10 10 12 12 12 12 13 15 15 15 16 16 18 19 18 18 18 17 18 19 20 21 21 22 23 23 23 22 21 20 19 16 15 13 12 12 12 14 18 26 33 26 21 21 15 21 40 40 27 29 35 31 25 29 44 55 54 50 41 44 66 70 62 78 92 88 89 93 84 69 59 56 53 55 70 84 87 81 71 70 76 73 69 79 88 90 96
7 8 9 10 11 12 13 14 16 17 16 17 17 18 19 19 18 19 19 20 21 21 22 22 23 24 24 24 23 21 22 20 17 15 13 12 12 12 15 21 30 34 26 22 22 15 22 44 41 23 23 27 23 24 39 57 60 53 48 39 34 51 72 84 96 99 94 88 76 62 57 58 58 58 67 84 91 83 74 71 76 76 61 58 80 94 93 97
6 7 7 9 10 11 13 14 16 18 18 18 19 19 20 19 19 20 20 21 22 22 23 23 23 25 25 24 24 22 22 20 17 15 13 12 14 14 16 25 34 33 26 24 21 16 25 38 32 21 23 26 24 27 39 48 46 38 39 41 35 44 73 95 96 87 81 76 65 58 58 57 59 66 77 90 94 80 69 75 79 62 48 60 82 92 96 101
6 6 6 8 9 10 12 13 15 17 18 19 19 19 20 20 20 21 21 22 23 23 24 24 24 26 26 25 24 23 21 19 15 14 13 13 16 17 19 27 34 31 27 25 19 18 26 32 28 24 24 27 29 29 29 33 33 30 37 48 45 49 72 85 74 64 65 65 60 60 60 59 66 81 86 84 87 87 82 81 69 50 50 67 79 89 100 103
4 5 6 7 7 9 11 13 15 16 18 20 20 19 20 21 22 22 22 23 24 24 25 26 26 27 27 26 24 23 21 18 14 14 14 13 16 20 22 27 31 30 28 24 20 19 24 27 26 25 26 28 30 28 25 30 33 35 50 63 52 45 60 68 57 52 55 57 58 62 66 70 78 89 87 79 82 91 91 77 52 42 58 73 79 91 101 100
3 3 4 6 6 8 11 12 14 16 17 19 21 21 21 22 23 23 23 24 25 26 27 27 28 28 28 26 25 24 21 17 15 14 14 14 17 20 24 26 29 32 28 22 21 21 24 27 26 29 39 39 31 25 26 33 39 46 59 62 49 46 56 56 50 53 57 60 63 65 70 82 91 90 84 86 91 89 82 69 51 51 70 83 90 98 100 100
2 2 3 5 6 7 10 12 14 16 17 19 21 22 21 22 24 23 24 25 26 27 28 28 29 29 28 26 26 24 20 16 15 15 14 16 17 20 23 25 29 31 27 22 23 23 26 30 29 36 50 45 31 29 32 34 40 51 56 50 47 53 53 47 50 60 61 61 65 72 80 88 90 86 86 94 96 88 81 71 65 77 92 96 100 102 99 100
Wind_Speed
12 11 10 9 9 8 7 6 5 3 2 1 2 3 3 3 2 2 3 5 6 7 8 8 8 8 9 10 11 11 10 11 11 11 10 9 9 10 9 9 10 10 11 11 11 10 9 8 8 8 8 7 7 7 8 8 7 7 5 7 8 6 6 11 14 15 16 16 17 19 20 19 16 19 18 14 20 24 22 22 23 26 26 27 27 27 28 26
12 11 11 10 9 7 6 5 4 4 3 4 4 4 4 4 3 3 4 7 8 9 9 10 9 9 9 10 10 10 10 10 10 11 11 10 10 10 10 10 10 11 11 11 11 10 10 9 8 8 8 7 7 7 8 8 7 5 4 6 7 6 11 16 16 17 17 17 17 17 19 22 20 20 18 13 22 26 22 22 23 24 24 24 23 23 23 22
13 12 11 10 9 8 7 6 6 6 5 5 6 6 5 4 4 5 6 8 9 9 9 9 9 9 8 8 8 9 9 9 9 10 10 9 9 9 9 9 9 9 10 9 9 9 9 9 9 8 7 6 6 6 7 7 6 4 2 4 7 9 13 15 13 14 16 16 15 15 18 23 20 18 18 18 24 25 20 20 19 20 20 20 20 20 20 20
13 12 11 11 10 9 8 8 8 7 6 6 6 6 5 5 5 6 7 8 9 9 9 8 8 8 7 7 7 8 9 8 8 10 10 9 8 8 8 8 8 8 8 8 8 8 8 8 7 7 6 6 6 6 5 6 4 3 1 4 8 8 10 13 12 13 14 14 14 13 16 21 21 18 18 18 20 21 20 18 17 17 18 18 19 19 20 20
13 12 12 11 10 10 10 9 8 7 6 5 5 5 4 5 6 6 7 8 9 8 8 7 7 7 7 7 7 8 9 6 7 9 8 8 8 7 7 7 7 7 7 7 8 7 7 6 6 6 6 5 5 4 5 5 3 2 3 5 8 8 9 11 11 10 11 11 12 12 15 20 21 19 17 15 16 18 20 20 18 18 17 18 20 21 22 22
13 12 12 12 11 10 10 8 7 5 4 4 4 4 4 5 6 7 7 7 7 7 7 7 7 7 8 8 6 8 9 5 6 8 7 8 8 7 7 7 7 8 8 8 8 7 7 7 7 6 5 4 4 3 3 3 2 1 4 6 7 8 8 9 8 8 11 12 14 15 16 19 19 18 17 16 16 18 20 21 21 20 19 20 21 22 24 25
12 12 12 11 10 10 8 7 5 4 4 3 4 4 4 5 5 6 6 6 6 7 7 7 7 7 7 6 5 8 9 6 6 7 7 8 8 7 7 7 8 8 8 8 8 7 7 7 6 6 5 4 4 2 1 2 2 2 4 6 5 6 8 7 6 8 12 16 19 18 19 19 18 19 20 19 20 20 21 21 22 21 21 21 22 24 25 26
12 11 11 10 9 8 6 5 4 3 3 2 2 3 3 4 4 5 5 6 6 7 7 7 6 6 7 6 7 9 7 6 7 7 8 8 7 6 6 7 8 8 8 8 8 8 8 8 6 6 6 4 3 3 2 2 2 1 2 3 4 7 9 9 8 10 15 18 19 19 20 19 17 19 21 22 22 22 22 22 22 22 22 23 24 25 26 27
11 10 10 9 8 6 5 4 3 2 1 0 1 2 2 3 4 4 5 6 6 7 8 7 7 7 7 6 8 8 5 6 8 8 9 8 7 6 6 6 7 7 7 7 9 9 8 9 8 7 7 4 3 4 4 3 2 3 3 4 5 8 10 10 10 11 14 16 18 19 20 18 18 19 20 22 23 23 23 23 23 23 24 25 25 26 27 28
10 10 9 8 7 6 5 4 3 2 2 1 1 1 2 3 4 4 5 6 8 8 8 7 8 8 6 5 6 6 5 7 8 9 9 9 8 6 5 5 6 6 6 7 9 9 8 10 10 10 8 5 5 6 7 5 2 2 4 5 7 8 10 11 9 10 14 16 18 21 21 19 18 19 21 23 23 23 24 24 25 25 26 27 27 28 29 29
10 10 9 8 7 6 5 5 4 3 2 2 2 3 3 4 4 5 7 8 9 10 9 9 9 8 7 6 4 4 6 8 9 9 8 8 8 7 5 4 4 6 6 7 9 10 10 11 12 11 9 7 5 5 7 7 3 2 2 7 9 7 11 14 10 10 14 18 19 22 24 21 19 19 21 22 23 24 25 26 26 26 27 29 30 30 31 31
11 10 9 8 8 7 6 5 4 4 4 4 5 4 4 5 6 7 9 10 11 10 10 9 9 9 7 4 3 5 7 8 9 8 7 7 8 7 5 4 5 7 7 8 9 11 12 12 13 12 10 8 6 5 6 8 7 3 3 9 12 10 11 14 14 11 14 19 21 23 21 21 21 18 20 23 24 26 26 26 25 26 28 30 31 32 32 31
11 10 9 9 8 8 7 6 6 7 6 6 6 6 6 8 9 10 11 11 11 10 10 10 9 7 4 2 4 7 7 8 8 7 7 8 8 8 7 6 7 8 8 9 10 11 13 13 13 12 10 10 10 6 4 8 11 7 4 9 12 10 8 13 16 13 14 18 20 21 16 18 22 21 23 26 26 26 24 25 26 27 30 31 32 32 32 31
11 10 10 9 9 9 8 8 8 8 8 8 8 9 10 10 11 10 10 10 9 9 8 8 9 9 7 6 8 10 9 10 9 9 11 10 10 10 9 8 9 10 11 11 11 12 12 13 12 11 11 11 11 6 4 9 13 12 6 7 12 9 8 15 18 15 15 19 20 21 14 17 25 25 26 28 25 23 23 24 27 28 29 30 31 31 32 32
11 11 11 10 10 10 10 10 9 10 10 11 12 12 12 11 11 10 10 9 9 9 9 8 9 11 12 12 13 13 13 14 13 13 14 13 12 12 12 11 11 12 12 12 12 13 13 14 13 11 11 11 11 7 5 9 13 14 9 7 14 16 14 18 21 20 20 22 24 23 15 16 26 27 27 28 24 22 23 25 27 28 29 29 30 30 31 31
13 12 11 11 11 11 11 11 12 12 12 13 13 13 11 11 10 10 10 9 8 9 11 12 11 10 13 16 14 13 14 15 16 16 15 15 15 14 14 13 13 13 12 12 12 13 13 13 11 10 11 12 13 7 2 7 12 15 14 10 16 23 21 17 20 23 23 26 26 24 19 16 24 27 27 27 25 24 25 27 28 28 30 31 32 32 31 32
14 13 12 13 13 13 13 14 14 14 14 14 13 12 12 11 11 12 12 12 13 13 12 12 11 11 13 14 13 14 16 16 17 16 16 15 15 15 15 13 13 13 12 13 13 14 13 11 11 11 13 14 16 13 7 11 17 19 19 15 18 24 22 18 22 24 24 28 25 22 21 20 24 27 27 27 24 24 27 28 30 30 32 32 33 34 33 34
14 13 14 14 14 14 15 15 15 14 14 13 12 11 10 10 11 11 11 12 14 15 14 11 10 12 15 15 16 18 18 17 16 16 15 15 14 14 14 13 13 12 12 13 13 14 12 10 8 8 13 17 19 22 18 15 18 18 19 20 22 25 23 21 24 26 27 28 22 20 21 23 29 29 26 24 21 25 29 30 32 32 33 34 35 36 36 37
14 14 14 15 15 16 16 16 15 14 13 12 11 10 10 10 8 8 10 11 11 13 17 17 16 17 18 17 18 18 18 17 16 16 15 15 13 13 13 13 12 12 11 10 11 12 10 6 5 8 16 21 21 22 20 17 16 15 18 23 25 22 20 23 24 26 30 28 21 19 21 24 30 29 26 23 20 25 29 30 32 33 34 35 36 38 39 39
15 15 15 16 17 17 17 17 16 16 14 13 13 12 13 12 10 10 9 10 13 16 18 19 19 20 18 17 17 16 16 17 17 16 15 14 13 12 13 13 12 11 8 8 8 10 9 7 13 18 18 19 18 18 19 17 15 15 19 24 24 18 20 26 24 25 29 26 21 20 24 25 26 27 24 23 21 24 28 29 31 32 33 36 37 39 40 40
15 15 16 17 17 18 18 18 18 17 17 17 16 15 16 15 14 12 9 12 19 20 19 17 16 16 15 15 15 15 15 16 16 16 14 13 13 12 12 11 9 7 6 7 8 8 10 14 21 21 17 17 17 18 19 18 16 18 19 20 20 18 27 29 23 26 27 24 24 22 24 25 25 25 20 20 24 25 26 27 29 31 33 36 39 40 40 41
16 16 16 17 18 19 19 18 19 19 19 19 18 17 18 17 17 14 13 19 22 20 19 19 17 15 14 12 12 13 14 13 12 13 13 12 12 11 11 9 6 5 5 7 7 7 12 19 22 20 18 16 16 19 20 19 18 16 15 18 19 24 33 32 25 28 27 26 27 21 23 26 24 23 19 21 25 24 25 27 28 31 34 37 39 40 41 42
16 17 17 18 20 20 19 19 19 19 20 19 17 17 17 17 17 14 16 20 20 19 19 19 18 16 15 13 11 11 14 14 12 13 13 12 12 11 10 8 5 4 4 6 6 6 11 16 19 20 19 18 18 21 21 21 16 9 13 20 24 31 33 30 29 29 26 24 22 20 26 27 21 22 24 24 24 24 25 28 31 33 34 37 38 39 40 41
17 18 19 20 21 21 20 19 18 18 16 14 13 12 12 13 13 13 15 18 18 18 17 17 16 17 17 16 14 12 13 16 15 15 15 14 13 12 11 9 6 4 4 7 9 9 10 10 15 20 22 22 21 22 23 24 16 9 13 21 30 36 30 26 28 27 24 20 16 19 24 22 18 21 26 25 22 23 26 30 32 33 35 36 36 38 40 44
18 19 21 22 22 22 21 19 16 14 12 10 9 8 8 9 10 10 12 16 18 17 16 16 15 17 18 17 16 13 12 16 17 16 16 14 13 11 11 10 7 5 4 6 8 9 10 9 13 20 24 22 19 22 25 26 19 8 13 24 33 34 27 24 23 22 23 16 14 19 15 13 18 19 22 23 21 24 29 30 31 32 33 34 34 39 45 50
19 21 22 23 23 21 19 17 14 12 10 8 6 5 4 3 3 4 6 9 15 18 17 16 16 17 18 17 17 14 11 16 17 16 15 14 13 11 11 11 9 7 4 4 5 7 9 10 12 17 22 21 19 23 24 25 22 10 15 29 34 29 23 23 20 17 18 15 19 21 12 14 23 16 17 24 26 29 31 29 30 30 29 32 38 45 51 52
21 21 21 22 21 19 16 13 11 10 9 7 5 3 2 2 3 3 3 2 9 16 17 16 16 17 18 17 18 15 12 14 15 15 15 14 13 12 11 12 11 11 7 3 3 5 8 11 12 15 20 23 23 23 24 24 20 15 22 33 35 27 20 20 18 14 16 19 19 13 9 16 24 17 17 28 30 27 28 27 27 28 31 38 46 49 51 50
20 20 20 20 18 15 11 8 6 7 8 6 4 3 2 3 4 3 2 1 6 13 15 16 15 16 17 16 16 15 13 13 14 15 16 14 12 11 11 12 12 14 12 6 2 5 7 11 15 17 21 25 24 22 23 23 20 22 29 36 37 26 18 18 16 14 16 17 11 11 13 14 20 22 22 26 26 20 22 24 24 31 40 45 47 46 49 51
18 18 18 17 14 10 6 4 3 5 7 6 3 3 3 3 4 3 2 1 5 11 12 14 15 14 15 14 14 15 15 15 16 15 15 13 13 10 10 11 11 14 17 14 9 7 6 10 15 19 21 24 24 21 23 23 22 28 33 39 39 24 16 15 12 15 16 13 10 18 25 15 16 28 26 19 17 15 17 22 29 38 42 41 41 43 47 50
16 16 15 13 10 6 3 1 3 6 7 6 3 1 3 3 2 2 2 2 5 9 10 12 13 13 13 14 15 16 16 16 16 15 14 13 13 10 8 11 12 15 19 19 17 14 9 9 14 19 21 24 25 22 22 24 23 28 32 36 34 20 13 11 9 14 13 10 14 24 32 23 15 25 25 17 16 17 22 30 35 36 33 31 34 39 41 43
13 12 10 8 5 2 0 2 4 4 4 5 3 2 3 4 2 1 1 1 4 7 9 11 12 14 14 15 17 16 16 17 16 15 15 13 12 10 9 13 14 13 14 17 20 17 11 11 13 18 22 25 27 22 20 22 20 22 27 31 28 19 11 6 7 13 8 10 21 30 37 28 14 19 24 24 27 29 33 35 31 25 23 25 30 38 42 48
9 8 6 4 3 2 2 2 3 3 3 4 5 5 4 4 6 6 2 1 3 6 9 10 12 15 16 17 18 17 16 17 18 17 17 16 16 15 15 17 17 11 8 13 19 16 11 11 13 17 21 25 27 20 16 19 17 17 24 28 22 15 11 6 7 11 8 16 28 34 34 24 17 23 26 28 35 38 36 27 18 18 22 27 33 39 49 61
7 6 5 4 4 4 4 4 4 4 3 2 4 5 4 4 5 5 4 2 3 5 6 11 14 14 16 18 18 18 16 18 20 19 19 18 19 21 20 19 18 14 9 11 16 16 12 9 10 15 19 25 28 20 16 21 17 15 20 23 17 10 8 7 7 8 10 22 35 37 29 19 18 22 26 33 42 40 30 18 15 22 30 36 40 46 60 71
9 8 7 7 7 7 7 6 6 6 5 5 5 4 5 7 5 5 6 5 5 5 5 7 12 13 14 18 19 19 17 17 19 18 18 17 16 19 20 17 18 16 12 9 10 16 14 7 9 16 18 26 29 19 18 22 15 12 15 15 14 11 7 8 8 9 13 24 35 31 19 13 16 25 34 42 41 29 19 18 23 32 39 43 48 57 68 68
11 10 10 9 9 9 8 7 8 8 8 7 6 5 7 8 6 6 7 6 7 9 5 5 11 13 13 17 19 20 16 15 18 16 17 18 14 17 20 18 17 17 15 10 8 13 14 10 13 16 21 29 27 19 19 19 13 12 13 13 15 13 10 12 13 17 22 22 23 21 18 18 24 33 38 35 26 16 16 25 34 42 48 48 52 60 62 58
11 11 10 9 9 9 9 9 9 9 9 6 3 8 11 10 7 6 7 7 8 12 9 5 11 15 14 16 19 20 16 14 17 13 15 19 14 15 19 18 17 17 17 13 10 12 13 14 14 15 24 30 23 20 19 15 16 17 12 13 17 12 9 13 15 22 23 16 15 20 24 26 28 29 25 20 18 18 25 34 39 49 54 47 48 55 55 53
12 13 12 11 11 10 11 12 9 8 9 4 3 11 14 11 9 7 7 8 8 12 13 8 11 15 16 17 17 19 16 13 15 11 10 16 14 14 19 18 16 17 17 14 12 14 17 18 13 12 25 30 22 22 18 14 20 19 11 15 18 10 6 10 13 17 15 10 15 21 25 29 26 20 20 24 27 28 34 41 48 54 51 42 47 54 53 51
15 16 16 15 15 14 13 12 11 10 7 4 9 16 14 11 11 9 8 10 9 12 14 13 13 14 17 17 16 19 16 11 15 12 8 13 14 14 18 19 17 16 16 14 13 16 20 17 9 13 27 28 19 19 17 16 22 18 12 14 15 10 7 12 13 12 11 11 13 18 25 28 23 22 30 34 32 34 41 51 58 54 45 45 54 56 52 50
15 15 16 17 19 18 16 14 14 10 5 8 14 16 13 12 12 10 10 11 10 12 15 14 14 15 16 17 16 19 17 11 15 15 10 12 14 14 17 18 18 16 15 14 14 20 21 10 8 18 28 23 15 15 16 17 19 18 14 12 12 10 8 14 15 12 14 14 13 18 21 19 20 30 35 31 32 42 52 59 58 48 44 51 56 54 53 52
14 14 16 18 18 19 19 17 12 8 10 16 19 16 14 13 12 12 11 12 12 13 14 15 16 15 16 17 16 19 18 12 14 15 13 16 16 14 16 18 18 16 15 15 16 23 22 8 12 24 28 18 14 18 18 16 16 18 15 10 13 13 10 14 15 14 16 14 11 13 15 21 28 28 27 31 40 51 58 58 51 45 49 55 55 54 54 53
14 15 18 18 17 18 16 9 7 12 18 20 19 16 15 13 12 13 12 12 13 13 14 15 16 16 17 17 17 18 18 13 13 14 15 18 17 14 16 19 19 17 16 16 18 23 21 12 17 26 25 19 19 23 21 18 21 21 14 10 13 13 13 14 12 16 21 19 19 16 15 28 32 24 27 39 48 56 58 52 45 48 55 56 55 55 54 52
16 18 20 18 18 18 13 9 12 18 20 20 18 17 16 14 13 13 12 13 13 13 14 15 16 17 17 18 16 17 18 14 12 14 16 18 18 16 17 18 18 17 16 16 19 23 21 18 20 22 20 19 22 23 19 20 28 25 14 14 17 15 17 15 12 22 28 26 31 27 20 31 34 28 36 48 54 58 52 42 44 53 59 58 56 57 55 49
20 22 21 19 19 17 12 14 19 19 19 19 18 16 15 14 13 12 13 13 13 13 14 15 17 17 17 18 17 17 19 16 12 14 18 19 19 18 17 17 17 16 16 16 20 23 18 17 22 25 23 24 23 22 22 26 32 25 16 19 23 24 27 24 21 30 29 24 28 22 16 31 39 37 44 54 57 53 41 40 51 59 61 59 57 55 52 47
21 23 21 19 18 15 14 18 19 18 19 19 18 16 16 14 13 13 13 14 14 14 14 16 17 17 17 18 17 18 19 17 13 15 18 20 20 18 17 17 16 15 15 17 21 23 16 13 21 22 20 23 24 22 26 33 33 26 20 21 26 30 31 29 30 31 23 21 26 20 18 37 48 48 52 56 53 45 40 45 56 61 61 58 55 53 48 48
19 20 20 19 17 14 16 19 18 17 18 17 17 17 15 14 14 13 13 14 15 15 15 16 17 17 17 18 18 18 19 18 15 15 19 20 19 18 17 16 15 14 14 17 20 23 18 13 17 16 10 12 14 16 23 31 31 27 23 23 27 30 29 30 32 27 21 26 32 24 27 49 60 56 56 54 45 42 46 53 57 58 57 56 56 54 49 49
16 16 16 16 16 15 16 18 17 17 17 16 16 16 15 14 14 14 14 15 15 16 15 16 17 17 17 18 18 18 19 19 16 16 20 20 19 18 16 15 15 12 13 18 20 24 22 12 13 20 17 12 16 21 25 26 26 26 27 26 26 27 28 30 26 22 26 34 35 31 38 56 63 60 57 49 41 44 54 60 59 56 58 61 58 52 51 53
15 15 14 13 13 14 16 16 16 16 16 15 15 15 15 15 14 14 14 14 15 16 16 16 17 18 18 18 17 16 17 18 16 17 19 19 17 17 15 14 13 11 13 18 19 25 23 10 14 28 26 16 21 28 26 21 24 26 27 25 24 26 27 25 20 22 29 31 36 47 54 57 62 62 53 42 41 51 61 60 56 58 65 68 59 52 56 59
15 16 15 13 12 14 15 15 15 15 15 15 15 15 15 15 15 14 14 14 16 16 16 17 18 18 19 18 16 16 16 16 16 16 17 16 15 14 13 12 11 11 14 17 21 26 23 14 21 34 29 21 26 33 27 21 22 22 23 21 23 27 26 20 20 25 28 28 39 55 60 58 62 57 45 40 45 55 60 56 56 64 70 68 61 60 62 60
15 15 15 14 13 13 14 13 14 15 15 14 14 15 15 15 15 14 14 15 16 17 16 17 18 18 19 18 17 18 18 18 17 17 17 15 13 12 11 10 10 11 14 18 23 26 24 21 28 35 32 25 26 32 28 19 17 19 18 17 22 29 24 20 27 34 33 36 44 51 56 57 52 42 41 48 51 50 51 53 60 69 69 66 66 67 63 58
16 15 14 14 13 12 12 13 13 14 14 14 14 15 15 15 15 15 15 15 16 17 17 17 18 19 19 18 17 19 20 19 19 19 17 14 13 11 9 9 10 11 15 19 23 26 27 28 32 35 34 28 30 37 27 12 15 17 13 14 24 33 30 27 38 46 45 48 50 50 52 49 39 36 47 55 52 49 51 57 66 70 66 66 69 68 66 65
17 16 14 13 13 12 11 12 12 12 13 14 14 14 14 15 15 15 15 15 16 16 17 17 18 19 19 18 18 19 19 19 18 18 17 15 13 10 8 10 10 12 17 21 23 28 31 32 34 34 27 22 33 43 29 11 12 9 7 17 28 34 36 38 43 44 44 49 53 51 48 42 40 48 56 53 49 51 56 61 67 68 65 67 68 65 67 69
18 18 16 13 12 12 11 11 11 11 12 14 14 14 14 15 15 16 15 15 16 17 17 18 18 19 19 18 19 19 19 18 18 17 16 14 12 10 10 11 10 12 18 21 25 30 33 34 34 29 22 22 35 40 25 11 8 5 11 25 29 30 39 46 46 42 41 44 47 47 43 42 49 55 56 54 53 55 59 63 64 62 60 59 58 60 67 69
Wind_Direction
162 162 161 158 156 156 154 152 155 164 190 212 230 250 247 230 246 287 315 325 318 321 324 326 329 328 336 341 340 341 342 343 342 337 338 342 339 331 327 332 335 338 341 340 341 339 335 332 329 323 320 325 323 317 315 313 317 322 308 277 280 300 288 273 283 293 294 296 299 303 306 304 294 288 299 304 287 284 291 295 291 291 291 290 292 293 296 298
165 165 167 169 169 169 169 172 179 191 204 212 225 233 231 235 263 289 305 311 310 317 319 317 320 324 330 331 335 338 337 339 340 338 337 333 329 333 340 343 343 343 343 340 340 338 335 333 332 325 321 323 319 316 313 314 325 312 265 268 280 282 282 282 290 298 301 303 303 307 304 296 293 296 303 290 282 289 294 291 288 285 285 285 288 291 294 298
171 171 173 177 179 181 183 185 188 195 203 212 223 229 236 251 273 288 298 305 311 319 322 326 332 336 336 334 335 336 339 343 343 343 344 342 341 349 352 350 349 347 346 346 347 346 343 340 337 333 328 321 320 320 314 316 323 306 277 276 268 267 290 304 312 308 306 308 306 308 301 295 297 301 301 288 286 293 290 285 281 276 278 281 286 291 295 298
175 176 180 183 185 187 187 187 191 199 208 217 226 237 251 267 278 289 298 308 319 327 333 338 339 339 340 341 341 344 350 352 354 358 0 3 4 5 4 4 4 1 1 1 359 355 349 349 345 346 342 327 331 330 321 322 314 304 292 252 259 274 303 319 325 315 310 308 304 304 294 295 304 305 298 290 288 292 290 287 282 278 281 287 292 296 297 299
176 179 183 186 187 187 187 191 198 205 214 223 234 247 260 272 284 297 310 324 331 332 337 340 341 343 345 350 355 359 1 357 2 8 12 16 20 23 24 25 25 20 16 8 5 4 360 5 2 4 2 347 350 343 337 339 321 305 273 250 269 298 317 325 329 317 310 308 308 309 299 302 312 312 305 297 289 288 290 291 290 291 292 294 298 299 301 303
177 181 183 184 184 186 191 196 204 211 219 232 242 253 265 282 300 314 325 330 327 331 339 344 349 351 355 2 4 13 18 16 13 20 30 35 36 38 38 39 37 27 20 14 11 10 9 11 7 15 21 7 12 351 341 3 48 136 275 284 296 314 334 337 331 319 316 321 326 324 319 320 320 315 311 304 294 291 293 295 298 300 300 299 301 302 303 304
178 181 179 180 183 187 193 198 203 209 218 230 242 263 285 307 321 325 328 329 332 344 349 353 360 2 17 21 24 36 35 36 40 45 48 46 46 43 45 45 38 27 22 23 20 19 18 17 17 30 39 20 15 10 16 40 79 153 270 305 325 348 5 355 339 332 328 330 333 332 328 326 320 313 309 302 296 294 294 296 298 299 299 301 302 303 302 301
176 176 176 178 183 188 189 189 191 196 210 231 265 296 314 321 326 331 336 344 350 355 359 10 19 31 45 42 47 49 41 50 59 56 51 49 49 46 46 41 32 26 29 31 28 32 32 32 41 50 50 38 24 33 56 51 46 50 323 349 16 13 10 3 349 336 333 334 335 333 326 316 309 305 301 298 296 296 297 297 297 297 299 301 302 302 300 299
169 169 172 176 178 175 167 163 165 162 166 152 323 318 331 333 343 353 358 5 9 16 23 33 46 59 65 64 65 64 55 62 60 53 52 46 42 40 36 32 29 27 31 34 32 38 41 42 48 46 48 59 61 56 45 43 42 20 38 57 26 8 8 4 346 332 332 331 332 333 325 310 301 298 294 295 295 296 300 299 298 299 299 300 300 298 297 295
159 162 165 164 158 148 142 134 119 107 98 84 32 6 7 6 12 17 23 35 42 47 51 61 72 78 89 88 78 78 65 59 56 49 47 42 37 31 26 33 31 23 28 34 33 36 40 43 45 39 43 59 69 62 44 43 49 14 48 44 14 5 11 9 348 334 335 330 332 336 328 314 303 294 291 294 295 297 299 299 300 300 300 300 299 297 294 292
148 153 151 144 137 128 118 104 98 100 94 84 68 53 46 44 44 48 56 63 66 68 73 81 83 77 74 75 82 89 69 59 56 45 40 41 36 28 33 42 27 21 29 31 29 28 32 37 38 38 44 48 45 45 39 37 21 339 19 23 13 10 14 11 356 338 342 342 337 334 327 317 306 292 290 294 293 294 295 297 299 300 301 300 299 296 293 289
141 142 137 131 124 113 104 100 100 95 87 81 75 69 65 64 68 74 78 80 78 75 74 73 74 67 62 81 99 77 63 55 48 37 37 43 40 35 36 41 27 24 26 26 23 21 25 31 32 32 36 32 14 12 21 18 16 349 335 17 12 0 5 3 353 337 340 348 341 335 328 311 304 296 294 296 294 295 295 296 300 302 304 302 299 295 291 289
135 132 126 121 114 107 105 104 98 91 86 82 79 79 81 85 90 91 89 86 81 78 76 70 67 64 68 114 79 63 55 43 37 34 43 48 44 37 36 40 31 26 27 23 18 18 21 26 23 17 18 16 5 3 4 9 22 20 8 27 10 343 335 338 346 344 334 342 341 337 325 294 296 299 301 303 300 301 303 305 308 308 306 303 299 295 291 289
128 123 118 114 110 109 107 101 95 90 88 87 89 93 96 100 100 97 92 87 82 78 77 72 63 56 63 73 63 63 55 44 45 45 49 49 41 36 37 36 27 26 25 18 15 14 14 14 7 358 0 3 359 1 10 15 23 26 35 33 11 350 323 326 341 352 337 336 339 337 322 285 292 302 308 312 309 308 311 312 312 309 307 305 301 297 293 290
122 117 117 116 112 109 102 97 94 94 97 99 101 103 105 105 101 98 92 85 78 70 68 72 67 59 63 64 56 56 51 46 49 47 46 43 36 33 29 26 21 16 14 12 10 5 3 7 2 357 1 2 6 16 23 19 14 15 20 3 357 355 347 340 341 348 342 339 339 335 324 292 300 314 317 318 318 316 315 314 312 310 309 306 303 298 293 290
120 121 123 117 110 104 99 100 101 103 106 107 108 107 106 104 101 99 89 76 66 64 63 63 66 63 61 59 54 54 52 45 44 42 40 35 31 27 21 18 11 4 6 7 3 0 1 2 358 3 15 18 24 40 61 20 5 3 11 358 348 350 351 348 339 343 344 340 338 332 327 308 309 320 321 321 322 319 317 316 314 312 310 307 303 300 295 292
126 128 122 112 106 104 106 107 107 108 109 107 106 101 98 96 96 98 89 74 65 66 67 62 65 69 64 62 57 52 47 39 36 34 32 28 24 20 15 9 2 359 0 0 358 357 354 359 10 20 27 28 30 41 50 14 358 357 4 357 348 350 352 345 337 343 342 336 334 330 328 317 311 317 318 321 323 319 318 315 313 311 309 306 302 301 297 293
129 123 114 110 109 111 111 110 110 109 106 103 99 95 93 91 96 98 81 67 67 71 71 63 66 68 59 52 46 40 35 31 28 27 26 22 17 16 10 2 358 355 354 360 359 354 356 11 25 22 21 24 22 28 32 11 356 355 357 354 353 353 352 344 335 337 338 333 333 329 326 316 311 316 317 320 323 320 318 315 313 311 308 307 304 302 298 294
123 117 113 114 114 115 113 111 108 104 100 96 92 89 85 84 91 92 77 75 83 81 70 58 57 59 49 39 36 32 27 22 20 20 21 16 12 10 5 359 354 348 351 1 354 355 1 356 358 5 13 20 19 21 20 7 2 0 359 358 356 348 339 337 331 332 336 333 334 329 320 313 310 315 315 313 319 319 317 314 312 310 307 306 303 300 298 295
119 117 117 119 119 119 114 109 104 99 94 86 80 79 79 81 82 87 95 93 80 71 65 55 52 56 51 41 34 26 14 12 16 17 14 11 10 6 1 356 351 345 343 352 356 5 4 4 27 28 21 19 16 14 10 6 7 5 5 0 353 338 325 333 333 335 337 329 330 326 313 312 308 310 311 307 308 311 313 312 309 307 305 302 299 296 295 295
120 120 121 123 123 119 114 110 106 100 94 85 79 80 84 88 85 89 103 86 68 61 59 53 50 52 50 47 41 27 11 10 16 14 9 10 9 3 359 355 347 336 330 356 14 11 11 31 38 30 21 16 9 9 9 8 8 7 8 355 345 335 328 336 335 332 337 326 326 324 306 310 307 306 312 308 304 304 308 309 304 303 301 300 298 295 294 295
122 122 124 125 123 120 116 114 110 104 99 93 90 88 88 87 83 84 84 75 67 60 57 52 47 43 36 34 34 28 17 14 15 11 11 13 9 4 1 356 343 334 345 16 26 11 23 39 35 22 17 13 8 13 11 7 7 5 4 349 340 339 334 339 335 326 329 321 323 321 304 309 304 299 315 314 305 302 303 306 303 301 299 297 296 293 294 297
124 124 126 127 125 122 118 114 110 107 105 103 99 92 88 85 81 78 72 70 66 58 55 50 43 40 34 25 20 20 15 12 10 10 16 15 10 9 7 5 2 354 4 32 47 40 40 41 28 17 13 11 13 15 10 10 7 339 346 347 341 343 337 332 328 322 323 315 314 315 308 311 298 293 312 313 306 303 301 304 303 300 298 296 295 295 297 298
128 130 131 131 127 120 115 111 109 107 106 104 101 94 91 89 82 72 64 63 57 49 48 44 36 34 31 24 18 15 12 12 11 14 20 17 14 12 10 15 18 12 7 25 39 41 42 38 17 12 12 13 13 8 6 12 6 306 324 343 342 343 336 324 321 319 324 318 307 311 308 306 299 300 309 307 303 301 298 299 299 298 297 296 297 299 301 303
134 137 136 133 126 119 114 109 105 102 100 101 101 100 99 92 82 68 57 54 46 39 37 32 26 26 25 20 17 13 8 13 14 16 19 18 19 16 15 20 21 18 358 14 41 38 32 24 6 10 14 13 7 2 3 6 3 322 314 339 344 340 333 328 324 316 322 322 308 310 304 302 309 300 296 302 305 300 297 296 293 295 296 296 301 305 307 309
140 141 139 135 130 122 115 107 99 94 91 96 101 107 112 88 60 35 36 44 34 28 28 22 16 19 18 17 17 13 7 10 12 17 18 19 23 21 22 26 28 32 355 340 39 33 24 17 3 8 12 10 4 1 1 359 359 341 323 341 346 339 330 329 322 308 312 315 313 307 280 292 310 297 285 303 309 299 295 293 291 296 299 303 310 312 313 313
142 143 142 141 136 128 122 109 91 78 73 80 88 95 95 15 351 338 340 12 15 16 20 18 16 15 12 15 16 17 16 7 6 16 19 19 21 23 30 31 33 38 22 356 19 8 10 12 3 1 4 6 4 358 355 356 353 340 335 344 347 341 331 325 312 299 303 307 313 311 272 284 302 305 298 303 303 293 290 292 294 303 308 311 314 314 314 313
142 144 146 147 142 135 131 115 80 53 47 56 61 56 45 17 25 34 15 334 6 9 11 12 13 11 9 10 13 19 23 12 11 17 17 17 17 20 34 37 37 38 36 36 352 319 342 359 359 358 360 4 2 351 350 353 347 339 342 348 351 346 334 326 301 285 303 301 302 341 336 299 295 307 304 298 296 283 283 290 298 308 310 310 311 312 312 310
142 145 149 150 148 143 137 117 53 23 18 18 20 22 29 27 39 57 55 41 10 5 7 10 9 8 7 9 13 18 18 15 17 16 12 16 16 17 31 34 36 36 33 31 14 342 331 348 357 356 357 359 355 347 350 352 344 342 348 349 350 343 322 316 286 277 300 292 291 334 339 325 302 307 304 295 286 266 270 290 302 306 304 306 310 313 314 314
141 144 148 150 150 149 140 64 357 353 354 352 348 353 34 33 21 41 43 29 12 7 8 8 7 9 8 9 13 14 13 13 15 14 12 18 19 16 19 17 20 23 21 19 15 5 337 325 346 353 354 353 350 348 349 350 345 345 349 346 345 340 311 290 274 293 301 294 312 330 332 327 305 304 306 297 284 276 285 297 301 301 303 311 317 319 320 323
138 141 144 148 148 141 41 346 350 359 12 22 40 76 69 49 35 58 44 348 359 6 7 3 3 7 8 10 13 10 9 9 11 13 11 15 15 7 8 12 16 19 12 7 8 6 344 314 325 344 348 347 350 351 346 346 346 343 346 344 343 344 331 281 289 322 316 304 319 326 327 322 299 302 308 300 298 301 302 302 303 308 321 328 325 325 327 328
136 137 135 138 127 80 37 23 15 29 42 47 67 80 77 59 52 58 63 301 339 358 6 6 3 6 6 8 11 8 6 7 10 12 11 12 13 16 22 23 24 25 4 355 1 2 340 309 311 333 341 345 350 353 347 349 347 339 347 353 350 346 347 338 326 335 319 302 312 320 323 314 294 302 303 303 310 311 309 312 321 332 337 332 327 326 326 327
117 113 110 106 93 79 71 63 55 56 57 69 85 81 78 74 58 54 58 40 350 337 350 6 5 4 6 8 10 7 6 9 9 10 11 12 16 22 25 22 23 22 358 346 356 357 339 300 308 332 336 343 350 352 350 349 346 342 352 0 358 347 340 332 323 326 310 301 308 314 313 299 295 304 306 309 312 309 310 326 341 336 332 328 324 319 319 323
99 99 98 94 90 85 76 70 69 70 75 83 86 90 93 88 85 81 65 47 20 350 330 358 6 3 6 9 10 6 6 9 8 7 11 11 14 19 17 14 15 14 4 352 351 355 347 305 310 333 337 345 350 351 348 350 352 346 352 359 353 343 321 309 315 317 306 302 307 311 306 299 310 313 309 307 307 308 315 328 328 326 326 324 320 318 321 325
97 97 95 91 90 85 78 81 81 74 76 82 80 87 102 101 98 92 67 45 32 18 359 356 7 9 8 7 8 7 6 7 4 4 7 7 9 10 9 8 7 7 9 4 344 351 349 317 313 332 345 348 347 348 349 355 1 342 341 347 341 333 300 284 291 301 303 298 303 309 301 301 310 308 305 306 310 316 316 320 325 327 327 326 322 322 326 328
101 98 94 88 87 85 77 77 77 76 79 82 78 80 93 107 104 89 62 44 33 24 24 14 5 12 12 5 6 6 4 5 7 6 0 360 3 2 1 2 2 2 8 5 349 350 345 331 331 341 348 348 347 351 353 356 355 343 336 338 338 335 299 289 295 304 306 295 294 304 300 304 312 309 310 321 324 314 313 323 331 330 328 329 327 327 328 327
100 95 92 88 90 90 82 76 67 69 76 77 108 91 93 100 89 78 58 44 34 26 31 27 8 11 12 8 5 3 3 6 9 8 354 353 353 349 352 357 358 359 2 2 356 350 338 335 345 347 345 347 349 355 358 351 347 346 337 337 346 353 316 310 314 310 310 296 293 303 304 307 314 313 319 325 318 315 322 330 332 328 326 329 329 328 326 326
97 95 94 92 89 83 81 81 67 61 76 102 100 92 90 88 75 67 52 41 34 27 30 28 16 11 11 10 3 2 7 5 4 10 358 348 346 341 347 352 354 355 357 356 355 351 342 334 336 342 345 349 352 359 0 343 340 346 341 341 353 357 321 322 325 308 307 306 296 306 307 306 313 316 316 317 318 325 331 332 331 329 328 328 327 327 326 326
97 97 96 90 88 83 73 66 58 58 92 100 92 89 83 78 68 58 48 39 33 28 28 25 16 12 11 10 2 2 6 359 2 11 2 348 346 341 344 348 350 353 354 354 355 354 351 333 300 335 350 353 348 353 352 338 337 342 342 340 343 342 319 316 315 294 297 305 300 311 309 303 316 316 312 318 328 332 332 330 330 330 328 328 327 326 326 326
99 100 93 84 83 81 71 62 59 73 89 80 81 84 77 71 63 54 48 37 32 30 27 20 14 13 9 6 4 3 2 355 357 4 358 353 351 343 343 346 348 351 351 354 355 354 356 334 295 330 351 356 337 338 341 339 341 338 333 329 331 340 331 314 307 291 299 305 300 312 303 297 314 318 314 324 330 329 329 328 327 328 327 327 327 326 326 324
97 94 88 80 75 74 76 85 79 70 72 71 73 74 69 64 57 51 44 35 32 29 24 17 14 14 8 5 4 1 360 356 351 355 354 354 353 345 341 343 347 352 353 357 359 356 354 342 319 329 342 341 330 337 342 343 346 341 332 326 329 341 342 328 316 305 308 303 295 303 296 294 311 325 321 323 325 325 327 326 325 327 326 326 326 326 326 324
93 88 84 82 78 74 80 98 76 62 65 68 66 64 61 57 51 45 38 33 31 26 22 16 12 12 8 5 2 358 359 356 347 349 350 350 349 344 341 345 349 350 352 359 2 357 351 347 336 327 329 330 330 340 347 345 348 348 344 337 332 335 336 327 309 305 305 298 293 297 289 290 305 322 320 320 323 324 327 326 325 326 326 326 326 326 326 324
89 85 82 78 77 77 75 75 69 62 62 62 60 57 54 50 44 39 35 30 25 22 19 14 11 9 5 2 359 357 358 356 348 347 347 346 346 344 343 347 348 347 351 358 360 359 359 355 344 334 335 341 339 345 347 343 346 345 335 329 322 319 321 315 306 304 298 291 298 301 285 290 306 320 321 322 324 324 327 328 327 326 326 326 326 326 327 326
85 83 81 75 74 75 71 66 63 58 56 55 54 50 46 42 38 34 31 26 22 20 15 10 9 5 2 1 358 356 358 356 350 346 345 344 342 343 343 345 346 347 352 358 0 2 4 1 354 346 342 346 347 348 345 338 337 331 321 317 311 309 315 316 316 311 295 290 305 307 286 294 309 321 323 324 326 326 327 327 327 327 326 326 326 325 323 325
76 78 78 74 69 64 62 61 57 52 50 48 47 44 39 35 32 29 26 22 18 15 11 7 5 1 359 359 356 355 355 354 349 342 341 341 339 341 340 341 344 343 349 358 359 359 0 2 5 0 340 332 331 329 330 325 319 317 315 314 309 308 314 320 319 311 301 305 307 296 288 299 311 321 324 326 328 328 328 327 327 327 326 325 326 323 323 326
67 69 70 69 62 52 53 55 50 47 45 41 40 39 34 30 29 25 21 18 13 10 7 3 2 359 358 356 355 354 351 348 347 341 338 338 337 338 336 336 340 336 344 353 352 355 359 357 355 352 339 314 305 317 325 318 306 306 310 312 313 311 314 321 318 306 309 313 304 294 301 307 313 321 326 327 328 329 330 329 328 326 326 327 325 323 326 330
60 60 58 60 56 47 46 48 44 42 40 36 35 34 30 27 26 22 17 13 9 6 2 359 359 358 356 354 353 352 347 343 343 340 338 337 335 335 332 333 336 328 337 347 347 352 358 347 335 345 346 334 330 338 336 313 299 302 303 309 318 319 318 319 312 308 316 315 304 308 315 315 315 321 327 329 330 329 329 330 328 325 327 330 329 328 332 333
53 54 51 52 52 46 43 42 39 37 35 32 30 29 27 24 22 19 14 10 7 3 359 358 357 354 353 352 348 346 344 342 342 340 337 336 334 332 329 331 332 326 333 343 345 351 358 351 339 344 348 349 350 350 339 310 298 302 299 302 316 323 323 318 308 312 317 308 303 311 316 315 315 320 325 328 328 327 327 327 326 326 330 334 334 335 334 331
44 46 45 44 43 42 41 37 35 33 30 26 24 24 24 20 17 14 10 7 5 2 359 355 352 350 350 348 344 343 344 343 344 342 340 340 337 332 330 333 332 327 333 341 344 351 357 351 342 345 351 355 354 350 342 317 306 314 304 298 315 325 325 319 317 321 320 309 306 311 313 313 316 321 323 324 326 325 325 325 326 329 333 336 338 337 333 328
39 38 39 38 34 35 36 33 32 30 26 22 20 20 18 14 13 9 6 5 2 0 357 352 349 347 346 345 343 343 344 344 343 342 343 344 339 333 331 334 331 327 333 340 343 350 354 350 347 348 352 357 354 351 351 327 306 314 294 289 319 326 323 324 327 327 324 318 315 316 314 313 318 324 323 325 326 325 325 327 329 333 337 338 338 336 331 328
36 33 33 33 30 31 30 27 27 25 22 19 17 15 11 8 8 5 2 1 358 357 354 350 347 345 343 344 343 342 343 343 342 342 343 343 339 336 333 331 326 324 332 338 343 348 351 351 353 353 349 349 351 353 358 345 311 308 287 308 323 324 321 325 329 326 322 320 319 320 320 320 324 325 324 325 327 327 328 329 330 334 339 340 337 332 328 327
32 29 28 28 27 27 25 23 21 19 17 16 13 10 7 4 4 1 359 357 354 353 352 349 346 344 344 344 343 343 342 341 341 341 343 342 337 335 335 328 318 321 331 339 345 349 352 354 358 357 342 337 350 355 357 346 325 325 321 319 319 319 321 324 325 324 323 323 321 321 322 322 324 326 325 326 327 328 327 328 329 332 335 334 330 326 326 326